Location: Irma
(52.9170°N, 111.2330°W)
Time: 20:21:41
(UTC-06:00)

Amateur Radio Satellites - All Passes

Search period start: 02 September 2014 19:51
Search period end: 03 September 2014 19:51
Location: Irma, 52.9170°N, 111.2330°W

Satellite Date Start Highest point End Downlink Frequencies (MHz)
Time Altitude Azimuth
Sapphire 02 Sep 20:00:03 20:04:37 27° 334° (NNW) 20:09:13 437.095 MHz 1200 baud AX-25 AFSK
JAS-2 02 Sep 20:02:57 20:06:53 19° 271° (W) 20:10:37 435.800 - 435.900 CW/SSB, 435.910 FM
Hamsat 02 Sep 20:12:27 20:13:01 10° 277° (W) 20:13:35 145.90 MHz
SO-67 02 Sep 20:21:14 20:24:15 27° 265° (W) 20:27:17 435.3500 MHz FM
HO-68 02 Sep 20:23:57 20:30:45 50° 60° (ENE) 20:37:34 435.675 MHz FM
PCSat 02 Sep 20:30:08 20:34:19 22° 342° (NNW) 20:38:30 145.825 MHz
UKube-1 02 Sep 20:34:22 20:37:41 22° 58° (ENE) 20:41:01 145.840 MHz, 145.915 MHz
Oscar 11 02 Sep 20:37:44 20:40:26 16° 56° (NE) 20:43:09 145.825 FM, Beacon 2401.500 USB
MaSat-1 02 Sep 20:43:55 20:48:04 27° 36° (NE) 20:51:51 437.345 MHz
OPAL 02 Sep 21:02:37 21:03:52 11° 320° (NW) 21:05:07 ?
STRAND 1 02 Sep 21:10:25 21:15:24 55° 293° (WNW) 21:20:22 ?
FUNcube-1 02 Sep 21:12:46 21:15:14 15° 54° (NE) 21:17:44 145.950 - 145.970 MHz USB
Sapphire 02 Sep 21:46:08 21:49:52 18° 0° (N) 21:53:36 437.095 MHz 1200 baud AX-25 AFSK
KITSAT 1 02 Sep 21:50:00 21:51:43 11° 94° (E) 21:53:26 435.175 FM
UKube-1 02 Sep 22:09:17 22:13:34 59° 258° (WSW) 22:17:53 145.840 MHz, 145.915 MHz
Oscar 11 02 Sep 22:11:42 22:16:04 85° 255° (WSW) 22:20:28 145.825 FM, Beacon 2401.500 USB
HO-68 02 Sep 22:11:45 22:18:33 46° 261° (W) 22:25:25 435.675 MHz FM
PCSat 02 Sep 22:15:49 22:19:40 19° 8° (N) 22:23:31 145.825 MHz
MaSat-1 02 Sep 22:20:50 22:25:35 71° 240° (WSW) 22:29:42 437.345 MHz
Saudisat 1A 02 Sep 22:35:29 22:39:23 32° 121° (ESE) 22:43:19 436.775 MHz
FUNcube-1 02 Sep 22:46:46 22:51:00 90° 74° (ENE) 22:55:23 145.950 - 145.970 MHz USB
STRAND 1 02 Sep 22:51:29 22:53:35 13° 313° (NW) 22:55:41 ?
Sapphire 02 Sep 23:30:31 23:35:06 27° 26° (NNE) 23:39:41 437.095 MHz 1200 baud AX-25 AFSK
KITSAT 1 02 Sep 23:37:29 23:45:06 48° 116° (ESE) 23:52:45 435.175 FM
Oscar 11 02 Sep 23:51:08 23:52:58 12° 275° (W) 23:54:48 145.825 FM, Beacon 2401.500 USB
PCSat 02 Sep 23:59:41 00:04:40 35° 34° (NNE) 00:09:38 145.825 MHz
MaSat-1 03 Sep 00:00:18 00:01:30 11° 262° (W) 00:02:39 437.345 MHz
Saudisat 1A 03 Sep 00:14:29 00:18:49 53° 321° (NW) 00:23:11 436.775 MHz
Oscar 10/S400 03 Sep 00:20:30 00:57:58 43° 192° (SSW) 07:25:13 145.825 - 145.975 CW/USB, Beacon 145.810 USB
FUNcube-1 03 Sep 00:26:12 00:28:07 13° 275° (W) 00:30:04 145.950 - 145.970 MHz USB
Sapphire 03 Sep 01:13:54 01:19:23 77° 49° (NE) 01:24:49 437.095 MHz 1200 baud AX-25 AFSK
KITSAT 1 03 Sep 01:32:22 01:40:23 63° 320° (NW) 01:48:27 435.175 FM
PCSat 03 Sep 01:43:06 01:48:31 69° 236° (SW) 01:53:54 145.825 MHz
Oscar 19 03 Sep 01:46:21 01:49:32 16° 86° (E) 01:52:41 437.125 CW, 437.150 USB
JAS-1B 03 Sep 01:53:10 01:53:48 10° 73° (ENE) 01:54:26 435.800 - 435.900 CW/SSB
Saudisat 1A 03 Sep 01:55:52 01:59:18 22° 344° (NNW) 02:02:45 436.775 MHz
AO-40 03 Sep 02:11:14 03:08:12 12° 222° (SW) 04:21:20 Beacon 2401.320
Oscar 16 03 Sep 02:20:59 02:25:34 30° 94° (E) 02:30:07 437.025 USB, Beacon 2401.1428
ITAMSAT 1 03 Sep 02:26:42 02:29:56 16° 87° (E) 02:33:08 435.822 SSB
Uribyol 2 03 Sep 02:35:20 02:39:09 20° 89° (E) 02:42:57 436.500 FM
TMSAT-1 03 Sep 02:55:50 02:57:17 11° 82° (E) 02:58:43 436.925 FM
AO-27 03 Sep 02:55:56 03:00:23 28° 93° (E) 03:04:48 436.795 MHz FM
Sapphire 03 Sep 02:58:01 03:02:18 24° 250° (WSW) 03:06:34 437.095 MHz 1200 baud AX-25 AFSK
AO-Echo 03 Sep 03:23:37 03:28:11 48° 99° (E) 03:32:44 ?
Oscar 19 03 Sep 03:24:24 03:29:39 88° 107° (ESE) 03:34:51 437.125 CW, 437.150 USB
OPAL 03 Sep 03:25:44 03:29:58 27° 55° (NE) 03:34:16 ?
PCSat 03 Sep 03:28:16 03:30:59 14° 256° (WSW) 03:33:41 145.825 MHz
SO-50 03 Sep 03:30:05 03:33:56 28° 119° (ESE) 03:37:53 436.795 FM
KITSAT 1 03 Sep 03:30:06 03:37:23 35° 347° (NNW) 03:44:39 435.175 FM
Saudisat 1A 03 Sep 03:37:06 03:40:19 19° 9° (N) 03:43:32 436.775 MHz
JAS-1B 03 Sep 03:39:46 03:46:34 56° 99° (E) 03:52:24 435.800 - 435.900 CW/SSB
Gurwin Techsat 1B 03 Sep 03:44:03 03:48:54 35° 95° (E) 03:53:43 435.225 FM
Oscar 16 03 Sep 04:00:08 04:05:10 50° 294° (WNW) 04:10:10 437.025 USB, Beacon 2401.1428
ITAMSAT 1 03 Sep 04:04:57 04:10:11 89° 103° (ESE) 04:15:23 435.822 SSB
Uribyol 2 03 Sep 04:14:01 04:19:13 75° 289° (WNW) 04:24:25 436.500 FM
Uosat F 03 Sep 04:19:21 04:20:57 11° 84° (E) 04:22:34 435.120 FM
AO-7 03 Sep 04:25:22 04:31:25 22° 86° (E) 04:37:25 29.400 - 29.500 MHz
TMSAT-1 03 Sep 04:33:02 04:38:19 63° 102° (ESE) 04:43:34 436.925 FM
AO-27 03 Sep 04:35:09 04:40:13 55° 293° (WNW) 04:45:16 436.795 MHz FM
AO-Echo 03 Sep 05:02:47 05:06:48 28° 299° (WNW) 05:10:48 ?
OPAL 03 Sep 05:03:26 05:08:30 64° 255° (WSW) 05:13:41 ?
Oscar 19 03 Sep 05:04:41 05:08:23 20° 306° (NW) 05:12:04 437.125 CW, 437.150 USB
UOSAT-12 03 Sep 05:09:34 05:13:21 25° 117° (ESE) 05:17:11 437.025 FM, 437.400 FM
SO-50 03 Sep 05:09:45 05:14:14 60° 320° (NW) 05:18:52 436.795 FM
Saudisat 1A 03 Sep 05:16:53 05:21:02 37° 32° (NNE) 05:25:09 436.775 MHz
STRAND 1 03 Sep 05:17:06 05:20:02 16° 50° (NE) 05:22:58 ?
Gurwin Techsat 1B 03 Sep 05:23:58 05:29:01 46° 295° (WNW) 05:34:03 435.225 FM
KITSAT 1 03 Sep 05:27:42 05:35:04 36° 16° (NNE) 05:42:25 435.175 FM
JAS-1B 03 Sep 05:30:42 05:36:59 36° 305° (NW) 05:42:27 435.800 - 435.900 CW/SSB
Oscar 16 03 Sep 05:41:32 05:43:25 12° 315° (NW) 05:45:18 437.025 USB, Beacon 2401.1428
ITAMSAT 1 03 Sep 05:45:25 05:49:04 20° 307° (NW) 05:52:42 435.822 SSB
Uribyol 2 03 Sep 05:54:43 05:57:55 17° 309° (NW) 06:01:08 436.500 FM
Uosat F 03 Sep 05:55:43 06:00:44 68° 103° (ESE) 06:05:43 435.120 FM
Hamsat 03 Sep 06:12:49 06:15:20 15° 87° (E) 06:17:49 145.90 MHz
TMSAT-1 03 Sep 06:13:31 06:17:54 27° 302° (WNW) 06:22:17 436.925 FM
AO-27 03 Sep 06:16:29 06:18:42 13° 314° (NW) 06:20:56 436.795 MHz FM
AO-7 03 Sep 06:17:14 06:25:35 79° 109° (ESE) 06:33:53 29.400 - 29.500 MHz
OPAL 03 Sep 06:46:58 06:48:27 11° 275° (W) 06:49:56 ?
UOSAT-12 03 Sep 06:48:28 06:53:08 70° 318° (NW) 06:57:53 437.025 FM, 437.400 FM
SO-50 03 Sep 06:51:56 06:55:40 24° 343° (NNW) 06:59:30 436.795 FM
STRAND 1 03 Sep 06:53:21 06:58:25 71° 70° (ENE) 07:03:30 ?
Saudisat 1A 03 Sep 06:56:29 07:00:48 52° 233° (SW) 07:05:05 436.775 MHz
RS-15 03 Sep 07:01:51 07:10:56 32° 106° (ESE) 07:19:56 29.354 - 29.394 USB, Beacon 29.352 USB
JAS-2 03 Sep 07:02:04 07:06:59 39° 97° (E) 07:12:13 435.800 - 435.900 CW/SSB, 435.910 FM
Gurwin Techsat 1B 03 Sep 07:06:19 07:07:47 11° 316° (NW) 07:09:15 435.225 FM
JAS-1B 03 Sep 07:23:10 07:25:25 12° 331° (NNW) 07:27:34 435.800 - 435.900 CW/SSB
KITSAT 1 03 Sep 07:23:45 07:31:52 71° 43° (NE) 07:39:56 435.175 FM
Uosat F 03 Sep 07:35:11 07:39:07 24° 303° (WNW) 07:43:04 435.120 FM
SO-67 03 Sep 07:39:25 07:41:30 15° 90° (E) 07:43:34 435.3500 MHz FM
Hamsat 03 Sep 07:47:30 07:51:53 79° 286° (WNW) 07:56:12 145.90 MHz
AO-7 03 Sep 08:10:31 08:17:48 36° 312° (NW) 08:25:03 29.400 - 29.500 MHz
UOSAT-12 03 Sep 08:30:06 08:34:04 26° 340° (NNW) 08:38:03 437.025 FM, 437.400 FM
SO-50 03 Sep 08:34:11 08:37:42 21° 8° (N) 08:41:18 436.795 FM
STRAND 1 03 Sep 08:34:20 08:38:08 21° 270° (W) 08:41:58 ?
JAS-2 03 Sep 08:47:22 08:52:12 39° 296° (WNW) 08:57:17 435.800 - 435.900 CW/SSB, 435.910 FM
RS-15 03 Sep 09:10:54 09:21:55 88° 131° (SE) 09:32:57 29.354 - 29.394 USB, Beacon 29.352 USB
SO-67 03 Sep 09:11:28 09:14:52 52° 288° (WNW) 09:18:14 435.3500 MHz FM
KITSAT 1 03 Sep 09:19:33 09:26:54 40° 247° (WSW) 09:34:14 435.175 FM
Hamsat 03 Sep 09:24:56 09:27:09 14° 306° (NW) 09:29:21 145.90 MHz
HO-68 03 Sep 09:32:30 09:38:29 28° 91° (E) 09:44:25 435.675 MHz FM
UKube-1 03 Sep 09:52:28 09:55:08 16° 89° (E) 09:57:48 145.840 MHz, 145.915 MHz
Oscar 11 03 Sep 09:55:04 09:56:54 12° 85° (E) 09:58:44 145.825 FM, Beacon 2401.500 USB
AO-7 03 Sep 10:04:01 10:08:17 15° 337° (NNW) 10:12:33 29.400 - 29.500 MHz
ISS 03 Sep 10:09:55 10:12:03 16° 144° (SE) 10:14:13 145.800 FM
UOSAT-12 03 Sep 10:12:06 10:15:39 20° 5° (N) 10:19:12 437.025 FM, 437.400 FM
SO-50 03 Sep 10:15:02 10:19:28 38° 31° (NNE) 10:23:58 436.795 FM
FUNcube-1 03 Sep 10:31:11 10:33:21 13° 86° (E) 10:35:32 145.950 - 145.970 MHz USB
JAS-1B 03 Sep 10:57:51 10:59:36 11° 27° (NNE) 11:01:17 435.800 - 435.900 CW/SSB
HO-68 03 Sep 11:19:45 11:26:56 78° 292° (WNW) 11:34:05 435.675 MHz FM
RS-15 03 Sep 11:24:54 11:35:28 50° 341° (NNW) 11:46:10 29.354 - 29.394 USB, Beacon 29.352 USB
UKube-1 03 Sep 11:27:31 11:31:53 75° 288° (WNW) 11:36:13 145.840 MHz, 145.915 MHz
Oscar 11 03 Sep 11:29:23 11:33:48 85° 105° (ESE) 11:38:11 145.825 FM, Beacon 2401.500 USB
Oscar 19 03 Sep 11:35:15 11:35:23 10° 43° (NE) 11:35:31 437.125 CW, 437.150 USB
ISS 03 Sep 11:45:02 11:48:16 49° 162° (SSE) 11:51:30 145.800 FM
UOSAT-12 03 Sep 11:52:44 11:57:05 34° 28° (NNE) 12:01:24 437.025 FM, 437.400 FM
AO-7 03 Sep 11:55:19 11:57:44 12° 5° (N) 12:00:08 29.400 - 29.500 MHz
SO-50 03 Sep 11:55:36 12:00:17 58° 232° (SW) 12:05:02 436.795 FM
FUNcube-1 03 Sep 12:05:53 12:10:27 85° 104° (ESE) 12:15:04 145.950 - 145.970 MHz USB
Oscar 16 03 Sep 12:07:09 12:10:25 17° 51° (NE) 12:13:41 437.025 USB, Beacon 2401.1428
MaSat-1 03 Sep 12:15:29 12:18:47 18° 103° (ESE) 12:22:07 437.345 MHz
ITAMSAT 1 03 Sep 12:15:41 12:16:46 11° 43° (NE) 12:17:50 435.822 SSB
Uribyol 2 03 Sep 12:23:21 12:25:29 13° 46° (NE) 12:27:37 436.500 FM
JAS-1B 03 Sep 12:40:25 12:47:47 29° 51° (NE) 12:54:18 435.800 - 435.900 CW/SSB
AO-27 03 Sep 12:43:16 12:46:26 17° 50° (NE) 12:49:36 436.795 MHz FM
UKube-1 03 Sep 13:05:16 13:07:23 14° 308° (NW) 13:09:30 145.840 MHz, 145.915 MHz
AO-Echo 03 Sep 13:05:28 13:09:08 22° 57° (ENE) 13:12:45 ?
Oscar 11 03 Sep 13:06:42 13:09:26 16° 304° (NW) 13:12:09 145.825 FM, Beacon 2401.500 USB
HO-68 03 Sep 13:08:15 13:13:42 24° 314° (NW) 13:19:08 435.675 MHz FM
Oscar 19 03 Sep 13:08:37 13:13:28 42° 64° (ENE) 13:18:21 437.125 CW, 437.150 USB
ISS 03 Sep 13:21:32 13:24:51 72° 182° (S) 13:28:11 145.800 FM
UOSAT-12 03 Sep 13:32:53 13:37:37 70° 230° (SW) 13:42:17 437.025 FM, 437.400 FM
Gurwin Techsat 1B 03 Sep 13:33:25 13:37:12 20° 53° (NE) 13:40:59 435.225 FM
SO-50 03 Sep 13:38:38 13:39:57 11° 252° (WSW) 13:41:16 436.795 FM
RS-15 03 Sep 13:39:55 13:50:27 48° 15° (NNE) 14:01:12 29.354 - 29.394 USB, Beacon 29.352 USB
AO-7 03 Sep 13:41:53 13:47:25 20° 32° (NNE) 13:52:57 29.400 - 29.500 MHz
FUNcube-1 03 Sep 13:43:20 13:46:18 18° 304° (WNW) 13:49:18 145.950 - 145.970 MHz USB
Oscar 16 03 Sep 13:43:50 13:49:00 77° 72° (ENE) 13:54:14 437.025 USB, Beacon 2401.1428
MaSat-1 03 Sep 13:50:00 13:55:06 86° 123° (ESE) 14:00:16 437.345 MHz
ITAMSAT 1 03 Sep 13:50:11 13:55:04 44° 65° (ENE) 13:59:58 435.822 SSB
Uribyol 2 03 Sep 13:58:55 14:03:55 54° 67° (ENE) 14:08:58 436.500 FM
AO-27 03 Sep 14:20:00 14:25:10 75° 71° (ENE) 14:30:21 436.795 MHz FM
TMSAT-1 03 Sep 14:21:06 14:25:44 32° 60° (ENE) 14:30:25 436.925 FM
JAS-1B 03 Sep 14:28:03 14:37:32 84° 71° (ENE) 14:45:41 435.800 - 435.900 CW/SSB
AO-Echo 03 Sep 14:42:35 14:47:31 71° 257° (WSW) 14:52:20 ?
Oscar 19 03 Sep 14:48:07 14:52:53 37° 264° (W) 14:57:43 437.125 CW, 437.150 USB
ISS 03 Sep 14:58:15 15:01:24 39° 202° (SSW) 15:04:32 145.800 FM
Gurwin Techsat 1B 03 Sep 15:11:13 15:16:33 89° 254° (WSW) 15:21:54 435.225 FM
UOSAT-12 03 Sep 15:14:42 15:16:57 13° 250° (WSW) 15:19:12 437.025 FM, 437.400 FM
Oscar 16 03 Sep 15:25:16 15:28:59 20° 272° (W) 15:32:43 437.025 USB, Beacon 2401.1428
MaSat-1 03 Sep 15:28:22 15:32:43 27° 324° (NW) 15:37:01 437.345 MHz
ITAMSAT 1 03 Sep 15:30:01 15:34:42 34° 264° (W) 15:39:25 435.822 SSB
AO-7 03 Sep 15:30:33 15:38:31 52° 57° (ENE) 15:46:28 29.400 - 29.500 MHz
Uosat F 03 Sep 15:37:14 15:41:37 32° 61° (ENE) 15:46:01 435.120 FM
Uribyol 2 03 Sep 15:39:18 15:43:43 28° 267° (W) 15:48:09 436.500 FM
RS-15 03 Sep 15:53:15 16:04:19 84° 45° (NE) 16:15:46 29.354 - 29.394 USB, Beacon 29.352 USB
TMSAT-1 03 Sep 16:00:22 16:05:30 50° 261° (W) 16:10:41 436.925 FM
AO-27 03 Sep 16:01:29 16:05:16 20° 271° (W) 16:09:04 436.795 MHz FM
Sapphire 03 Sep 16:03:33 16:07:11 19° 107° (ESE) 16:10:51 437.095 MHz 1200 baud AX-25 AFSK
JAS-1B 03 Sep 16:20:44 16:28:45 31° 270° (W) 16:35:57 435.800 - 435.900 CW/SSB
AO-Echo 03 Sep 16:25:35 16:27:11 11° 276° (W) 16:28:46 ?
PCSat 03 Sep 16:31:10 16:35:52 31° 113° (ESE) 16:40:36 145.825 MHz
ISS 03 Sep 16:36:15 16:37:28 12° 221° (SW) 16:38:40 145.800 FM
Gurwin Techsat 1B 03 Sep 16:53:58 16:57:18 17° 274° (W) 17:00:39 435.225 FM
OPAL 03 Sep 17:07:47 17:11:44 21° 92° (E) 17:15:40 ?
MaSat-1 03 Sep 17:09:01 17:11:22 13° 347° (NNW) 17:13:41 437.345 MHz
Hamsat 03 Sep 17:11:41 17:15:10 24° 61° (ENE) 17:18:40 145.90 MHz
Uosat F 03 Sep 17:15:26 17:20:16 48° 260° (W) 17:25:08 435.120 FM
JAS-2 03 Sep 17:21:10 17:26:14 36° 62° (ENE) 17:31:00 435.800 - 435.900 CW/SSB, 435.910 FM
AO-7 03 Sep 17:23:21 17:31:24 51° 259° (W) 17:39:29 29.400 - 29.500 MHz
Sapphire 03 Sep 17:44:28 17:49:54 86° 127° (SE) 17:55:22 437.095 MHz 1200 baud AX-25 AFSK
RS-15 03 Sep 18:06:02 18:15:45 38° 250° (WSW) 18:25:48 29.354 - 29.394 USB, Beacon 29.352 USB
PCSat 03 Sep 18:13:38 18:19:01 62° 315° (NW) 18:24:26 145.825 MHz
SO-67 03 Sep 18:18:43 18:20:45 15° 60° (ENE) 18:22:47 435.3500 MHz FM
HO-68 03 Sep 18:24:38 18:28:03 14° 33° (NNE) 18:31:28 435.675 MHz FM
OPAL 03 Sep 18:45:56 18:51:10 74° 292° (WNW) 18:56:22 ?
Hamsat 03 Sep 18:46:36 18:50:51 52° 260° (W) 18:55:09 145.90 MHz
MaSat-1 03 Sep 18:48:21 18:50:29 13° 11° (N) 18:52:33 437.345 MHz
STRAND 1 03 Sep 18:59:02 19:01:58 15° 86° (E) 19:04:53 ?
JAS-2 03 Sep 19:05:52 19:11:21 45° 261° (W) 19:16:27 435.800 - 435.900 CW/SSB, 435.910 FM
AO-7 03 Sep 19:23:39 19:26:23 12° 282° (WNW) 19:29:08 29.400 - 29.500 MHz
Sapphire 03 Sep 19:29:12 19:33:58 30° 330° (NNW) 19:38:45 437.095 MHz 1200 baud AX-25 AFSK
